KC5KAW Weather Reports


time (UTC)temp
F
wind
direction
speed
knots
gust
knots
rain 1hr
in
rain 24hr
in
rain mn
in
humidity
%
barometer
mb
20220524025803 75 88 0.0 3.5 0.00 0.00 0.00 85 1012.8
20220524025250 76 121 0.0 2.6 0.00 0.00 0.00 85 1012.6
20220524024742 76 95 0.0 5.2 0.00 0.00 0.00 84 1012.9
20220524024237 76 74 0.9 5.2 0.00 0.00 0.00 85 1012.9
20220524023730 76 95 0.9 5.2 0.00 0.00 0.00 85 1012.8
20220524023214 76 103 1.7 5.2 0.00 0.00 0.00 84 1012.9
20220524022659 76 124 1.7 7.0 0.00 0.00 0.00 84 1012.6
20220524022154 76 97 3.5 7.0 0.00 0.00 0.00 84 1012.9
20220524021644 76 96 0.9 5.2 0.00 0.00 0.00 84 1012.9
20220524021137 76 94 0.0 5.2 0.00 0.00 0.00 84 1013.0
20220524020619 76 94 0.0 5.2 0.00 0.00 0.00 84 1012.9
20220524020111 76 93 0.9 7.0 0.00 0.00 0.00 83 1012.9
20220524015603 77 91 0.9 7.0 0.00 0.00 0.00 83 1012.5
20220524015053 77 94 2.6 6.1 0.00 0.00 0.00 82 1012.8
20220524014548 77 85 3.5 5.2 0.00 0.00 0.00 82 1012.8
20220524014036 77 117 1.7 5.2 0.00 0.00 0.00 82 1012.6
20220524013518 78 86 2.6 6.1 0.00 0.00 0.00 81 1012.3
20220524013002 78 105 2.6 6.1 0.00 0.00 0.00 80 1012.4
20220524012501 78 68 1.7 6.1 0.00 0.00 0.00 80 1012.4
20220524011943 78 87 4.3 7.8 0.00 0.00 0.00 80 1012.2
20220524011438 79 79 0.9 7.8 0.00 0.00 0.00 80 1012.2
20220524010927 79 179 2.6 7.8 0.00 0.00 0.00 79 1012.1
20220524010409 79 119 4.3 7.8 0.00 0.00 0.00 78 1012.3
20220524005904 79 89 3.5 8.7 0.00 0.00 0.00 78 1012.0
20220524005351 80 114 3.5 8.7 0.00 0.00 0.00 78 1012.2
20220524004846 80 100 1.7 7.0 0.00 0.00 0.00 77 1011.7
20220524004338 80 79 0.9 8.7 0.00 0.00 0.00 77 1011.8
20220524003819 80 127 1.7 8.7 0.00 0.00 0.00 76 1011.6
20220524003310 80 114 4.3 7.8 0.00 0.00 0.00 76 1011.4
20220524002805 81 92 1.7 6.1 0.00 0.00 0.00 76 1011.5
20220524002253 81 143 1.7 7.8 0.00 0.00 0.00 75 1011.4
20220524001748 81 134 2.6 7.8 0.00 0.00 0.00 74 1011.5
20220524001236 82 91 1.7 7.0 0.00 0.00 0.00 73 1011.3
20220524000723 82 67 2.6 7.0 0.00 0.00 0.00 73 1011.0
20220524000208 82 67 1.7 8.7 0.00 0.00 0.00 73 1010.9
20220523235650 82 103 2.6 8.7 0.00 0.00 0.00 72 1011.2
20220523235146 82 142 3.5 7.8 0.00 0.00 0.00 72 1011.3
20220523234636 83 78 1.7 8.7 0.00 0.00 0.00 73 1011.4
20220523234127 83 122 2.6 8.7 0.00 0.00 0.00 72 1011.2
20220523233612 83 124 3.5 7.8 0.00 0.00 0.00 73 1011.5
20220523233104 84 116 0.9 6.1 0.00 0.00 0.00 71 1011.6
20220523232552 83 136 2.6 7.8 0.00 0.00 0.00 72 1011.5
20220523232048 85 106 2.6 7.8 0.00 0.00 0.00 71 1011.9
20220523231535 85 62 0.9 7.0 0.00 0.00 0.00 71 1011.8
20220523231027 84 93 3.5 9.6 0.00 0.00 0.00 71 1011.8
20220523230520 83 90 0.9 11.3 0.00 0.00 0.00 72 1011.9
20220523230013 83 95 6.1 11.3 0.00 0.00 0.00 72 1011.7
20220523225507 84 52 5.2 8.7 0.00 0.00 0.00 72 1011.9
20220523224955 85 103 3.5 8.7 0.00 0.00 0.00 71 1011.9
20220523224447 85 94 0.9 7.8 0.00 0.00 0.00 69 1012.2
20220523223940 85 17 2.6 8.7 0.00 0.00 0.00 70 1012.0
20220523223431 85 81 2.6 9.6 0.00 0.00 0.00 70 1012.0
20220523222916 85 99 2.6 9.6 0.00 0.00 0.00 69 1012.0
20220523222405 85 107 1.7 7.8 0.00 0.00 0.00 69 1012.2
20220523221900 86 104 0.9 7.8 0.00 0.00 0.00 67 1012.1
20220523221349 86 64 0.9 7.0 0.00 0.00 0.00 68 1012.3
20220523220843 85 206 1.7 6.1 0.00 0.00 0.00 68 1012.2
20220523220332 86 89 1.7 8.7 0.00 0.00 0.00 68 1012.1
20220523215814 88 104 4.3 8.7 0.00 0.00 0.00 65 1012.3
20220523215257 87 99 0.0 7.0 0.00 0.00 0.00 66 1011.9
20220523214747 87 123 2.6 7.0 0.00 0.00 0.00 65 1012.2
20220523214243 88 86 0.9 5.2 0.00 0.00 0.00 64 1012.3
20220523213743 87 102 2.6 6.1 0.00 0.00 0.00 65 1012.4
20220523213222 85 84 0.9 11.3 0.00 0.00 0.00 69 1012.2
20220523212709 85 145 3.5 11.3 0.00 0.00 0.00 68 1012.3
20220523212156 88 76 0.9 3.5 0.00 0.00 0.00 63 1012.4
20220523211648 87 85 0.9 7.0 0.00 0.00 0.00 66 1012.4
20220523211139 87 74 3.5 7.0 0.00 0.00 0.00 65 1012.6
20220523210631 87 127 2.6 7.0 0.00 0.00 0.00 66 1012.4
20220523210124 86 100 0.9 7.0 0.00 0.00 0.00 66 1012.2
20220523205621 86 94 0.9 5.2 0.00 0.00 0.00 67 1012.3
20220523205109 87 102 1.7 3.5 0.00 0.00 0.00 66 1012.4
20220523204559 87 82 1.7 6.1 0.00 0.00 0.00 64 1012.5
20220523204051 86 122 0.9 8.7 0.00 0.00 0.00 67 1012.4
20220523203544 87 100 3.5 7.8 0.00 0.00 0.00 64 1012.6
20220523203039 85 96 0.9 7.8 0.00 0.00 0.00 66 1012.5
20220523202527 86 53 0.9 7.8 0.00 0.00 0.00 67 1012.8
20220523202019 88 75 2.6 5.2 0.00 0.00 0.00 63 1012.2
20220523201513 87 115 1.7 7.0 0.00 0.00 0.00 63 1012.5
20220523201007 85 87 0.9 7.0 0.00 0.00 0.00 66 1012.7
20220523200455 87 110 0.9 7.8 0.00 0.00 0.00 63 1012.9
20220523195947 86 106 0.9 7.8 0.00 0.00 0.00 65 1012.6
20220523195439 88 121 4.3 7.0 0.00 0.00 0.00 63 1013.0
20220523194938 88 170 0.9 3.5 0.00 0.00 0.00 62 1012.9
20220523194426 86 87 1.7 6.1 0.00 0.00 0.00 65 1013.1
20220523193915 86 140 2.6 6.1 0.00 0.00 0.00 64 1013.4
20220523193407 87 88 1.7 6.1 0.00 0.00 0.00 65 1013.3
20220523192902 87 83 1.7 6.1 0.00 0.00 0.00 65 1013.8
20220523192352 86 113 0.9 5.2 0.00 0.00 0.00 65 1013.6
20220523191845 85 106 0.9 5.2 0.00 0.00 0.00 68 1013.8
20220523191336 86 99 0.0 3.5 0.00 0.00 0.00 66 1013.8
20220523190828 87 94 0.9 6.1 0.00 0.00 0.00 66 1013.9
20220523190320 86 127 0.9 6.1 0.00 0.00 0.00 66 1014.1
20220523185812 87 95 1.7 2.6 0.00 0.00 0.00 65 1014.2
20220523185304 87 82 0.9 2.6 0.00 0.00 0.00 65 1014.4
20220523184755 84 121 0.9 3.5 0.00 0.00 0.00 69 1014.4
20220523184249 85 85 1.7 3.5 0.00 0.00 0.00 69 1014.4
20220523183739 86 77 0.9 2.6 0.00 0.00 0.00 67 1014.5
20220523183232 86 94 0.9 5.2 0.00 0.00 0.00 68 1014.5
20220523182723 85 88 2.6 5.2 0.00 0.00 0.00 68 1014.6
20220523182215 84 115 1.7 5.2 0.00 0.00 0.00 69 1014.6
20220523181656 84 83 0.0 5.2 0.00 0.00 0.00 70 1014.9
20220523181151 84 97 1.7 5.2 0.00 0.00 0.00 69 1015.0
20220523180641 84 74 2.6 3.5 0.00 0.00 0.00 71 1015.1
20220523180141 84 104 0.0 2.6 0.00 0.00 0.00 71 1015.2
20220523175624 84 111 0.9 5.2 0.00 0.00 0.00 71 1015.0
20220523175117 84 69 0.9 5.2 0.00 0.00 0.00 71 1015.3
20220523174601 83 63 0.9 6.1 0.00 0.00 0.00 71 1015.4
20220523174049 84 108 0.0 6.1 0.00 0.00 0.00 70 1015.5
20220523173541 85 90 0.9 2.6 0.00 0.00 0.00 69 1015.3
20220523173038 84 48 1.7 3.5 0.00 0.00 0.00 71 1015.5
20220523172535 83 40 0.9 7.0 0.00 0.00 0.00 71 1015.5
20220523172009 82 81 0.9 7.0 0.00 0.00 0.00 74 1015.6
20220523171447 82 82 1.7 6.1 0.00 0.00 0.00 73 1015.9
20220523170939 82 80 0.0 5.2 0.00 0.00 0.00 72 1016.1
20220523170432 83 134 1.7 5.2 0.00 0.00 0.00 72 1016.4
20220523165924 81 44 3.5 6.1 0.00 0.00 0.00 74 1016.3
20220523165416 82 68 1.7 6.1 0.00 0.00 0.00 75 1016.1
20220523164856 82 90 0.9 6.1 0.00 0.00 0.00 74 1016.2
20220523164355 81 96 0.9 6.1 0.00 0.00 0.00 75 1016.4
20220523163841 82 81 0.9 6.1 0.00 0.00 0.00 74 1016.3
20220523163337 82 89 1.7 6.1 0.00 0.00 0.00 73 1016.6
20220523162827 81 85 0.0 6.1 0.00 0.00 0.00 74 1016.8
20220523162317 82 83 0.9 6.1 0.00 0.00 0.00 74 1016.7
20220523161810 80 129 0.9 3.5 0.00 0.00 0.00 75 1017.0
20220523161301 81 88 1.7 2.6 0.00 0.00 0.00 74 1016.8
20220523160752 80 93 0.0 3.5 0.00 0.00 0.00 76 1017.1
20220523160245 80 50 2.6 3.5 0.00 0.00 0.00 75 1017.1
20220523155738 80 116 0.9 2.6 0.00 0.00 0.00 77 1017.2
20220523155228 80 83 1.7 5.2 0.00 0.00 0.00 76 1017.4
20220523154721 80 91 0.0 5.2 0.00 0.00 0.00 77 1017.3
20220523154223 79 89 2.6 3.5 0.00 0.00 0.00 77 1017.4
20220523153659 79 93 0.0 7.0 0.00 0.00 0.00 78 1017.5
20220523153147 78 86 3.5 7.0 0.00 0.00 0.00 79 1017.5
20220523152640 78 51 0.9 3.5 0.00 0.00 0.00 80 1017.6
20220523152132 78 78 1.7 5.2 0.00 0.00 0.00 79 1017.6
20220523151621 77 77 0.9 6.1 0.00 0.00 0.00 82 1017.6
20220523151102 76 45 1.7 6.1 0.00 0.00 0.00 83 1017.7
20220523150556 75 97 1.7 5.2 0.00 0.00 0.00 84 1017.7
20220523150052 75 94 1.7 5.2 0.00 0.00 0.00 84 1017.8
20220523145542 75 58 2.6 5.2 0.00 0.00 0.00 84 1018.1
20220523145031 74 94 0.0 2.6 0.00 0.00 0.00 86 1018.1
20220523144523 73 96 0.9 1.7 0.00 0.00 0.00 87 1018.2
20220523144014 73 77 0.0 0.9 0.00 0.00 0.00 88 1018.4
20220523143509 72 84 0.0 0.9 0.00 0.00 0.00 89 1018.2
20220523143001 72 88 0.0 2.6 0.00 0.00 0.00 89 1018.5
20220523142450 72 93 0.9 2.6 0.00 0.00 0.00 90 1018.4
20220523141946 72 90 0.9 2.6 0.00 0.00 0.00 90 1018.3
20220523141434 72 109 0.9 2.6 0.00 0.00 0.00 90 1018.3
20220523140927 72 70 0.0 2.6 0.00 0.00 0.00 90 1018.4
20220523140410 72 97 0.0 2.6 0.00 0.00 0.00 90 1017.9
20220523135352 71 72 0.0 1.7 0.00 0.00 0.00 90 1018.1
20220523134847 71 86 0.0 1.7 0.00 0.00 0.00 90 1018.1
20220523134339 71 90 0.0 1.7 0.00 0.00 0.00 90 1018.2
20220523133816 71 84 0.0 5.2 0.00 0.00 0.00 91 1018.0
20220523133309 71 103 0.0 5.2 0.00 0.00 0.00 91 1017.9
20220523132749 71 97 0.0 2.6 0.00 0.00 0.00 91 1018.1
20220523132244 71 48 0.9 2.6 0.00 0.00 0.00 91 1017.8
20220523131733 71 91 0.9 3.5 0.00 0.00 0.00 91 1017.8
20220523131226 71 103 0.0 3.5 0.00 0.00 0.00 92 1017.7
20220523130721 71 92 0.0 2.6 0.00 0.00 0.00 92 1017.5
20220523130159 71 77 0.9 2.6 0.00 0.00 0.00 91 1017.4
20220523125654 71 77 0.0 2.6 0.00 0.00 0.00 91 1017.4
20220523125145 71 92 1.7 2.6 0.00 0.00 0.00 91 1016.9
20220523124640 71 96 0.0 5.2 0.00 0.00 0.00 92 1017.2
20220523124130 71 71 0.0 5.2 0.00 0.00 0.00 92 1017.3
20220523123607 71 113 1.7 3.5 0.00 0.00 0.00 92 1017.2
20220523123102 71 90 0.9 3.5 0.00 0.00 0.00 92 1017.1
20220523122556 71 76 0.9 3.5 0.00 0.00 0.00 92 1017.0
20220523122047 71 92 0.0 5.2 0.00 0.00 0.00 92 1017.1
20220523121538 71 93 0.9 5.2 0.00 0.00 0.00 91 1017.3
20220523121018 71 94 0.9 3.5 0.00 0.00 0.00 91 1017.0
20220523120511 71 90 0.9 1.7 0.00 0.00 0.00 91 1016.9
20220523115952 71 89 0.0 1.7 0.00 0.01 0.00 91 1017.1
20220523115441 71 87 0.0 1.7 0.00 0.01 0.00 92 1016.8
20220523114933 71 85 0.9 1.7 0.00 0.01 0.00 92 1016.7
20220523114425 71 79 0.0 1.7 0.00 0.01 0.00 92 1016.5
20220523113920 71 98 0.0 1.7 0.00 0.01 0.00 92 1016.5
20220523113358 71 91 0.9 1.7 0.00 0.01 0.00 92 1016.5
20220523112850 71 92 0.0 1.7 0.00 0.01 0.00 92 1016.1
20220523112345 71 98 0.0 0.9 0.00 0.01 0.00 92 1016.1
20220523111837 71 90 0.9 0.9 0.00 0.01 0.00 92 1016.2
20220523111326 71 80 0.0 2.6 0.00 0.01 0.00 92 1015.8
20220523110820 71 103 0.9 2.6 0.00 0.02 0.00 93 1015.7
20220523110310 71 93 0.0 1.7 0.00 0.03 0.00 93 1015.5
20220523105803 71 97 0.0 1.7 0.00 0.03 0.00 93 1015.7
20220523105259 71 75 0.0 2.6 0.00 0.03 0.00 93 1015.4
20220523104749 71 100 0.0 2.6 0.00 0.03 0.00 93 1015.1
20220523104240 71 91 0.0 0.9 0.00 0.03 0.00 93 1015.3
20220523103733 71 95 0.0 0.9 0.00 0.03 0.00 93 1015.3
20220523103229 71 92 0.0 0.9 0.00 0.03 0.00 93 1015.5
20220523102704 71 90 0.0 0.9 0.00 0.03 0.00 93 1015.4
20220523102144 71 108 0.0 0.9 0.00 0.03 0.00 93 1015.2
20220523101640 71 87 0.9 0.9 0.00 0.03 0.00 93 1015.0
20220523101129 71 96 0.0 0.9 0.00 0.03 0.00 93 1015.3
20220523100621 71 80 0.0 0.9 0.00 0.03 0.00 93 1015.1
20220523100115 71 94 0.0 0.9 0.00 0.03 0.00 93 1015.0
20220523095604 71 95 0.0 1.7 0.00 0.04 0.00 93 1015.1
20220523095056 71 87 0.0 2.6 0.00 0.04 0.00 93 1015.2
20220523094548 71 94 0.0 2.6 0.00 0.04 0.00 92 1015.2
20220523094044 71 91 0.0 0.9 0.00 0.04 0.00 92 1015.0
20220523093533 71 91 0.0 0.9 0.00 0.04 0.00 92 1015.1
20220523093016 71 95 0.0 0.9 0.00 0.05 0.00 92 1015.4
20220523092444 71 92 0.0 1.7 0.00 0.05 0.00 92 1015.4
20220523091939 71 90 0.9 1.7 0.00 0.05 0.00 92 1015.5
20220523091418 71 91 0.9 1.7 0.00 0.32 0.00 93 1015.3
20220523090913 71 81 0.0 1.7 0.00 0.32 0.00 93 1015.7
20220523090352 71 110 0.9 0.9 0.00 0.32 0.00 93 1015.4
20220523085848 71 94 0.0 1.7 0.00 0.32 0.00 93 1015.5
20220523085336 71 95 0.0 1.7 0.00 0.32 0.00 93 1015.7
20220523084830 71 90 0.0 0.9 0.00 0.32 0.00 92 1015.5
20220523084321 72 96 0.0 0.9 0.00 0.32 0.00 92 1015.8
20220523083803 72 97 0.0 0.9 0.00 0.32 0.00 92 1015.4
20220523083256 72 92 0.0 0.9 0.00 0.34 0.00 92 1015.4
20220523082745 72 91 0.0 0.9 0.00 0.38 0.00 92 1015.7
20220523082240 72 91 0.0 1.7 0.00 0.38 0.00 92 1015.7
20220523081718 72 83 0.0 1.7 0.00 0.38 0.00 92 1015.7
20220523081220 72 61 0.0 0.9 0.00 0.38 0.00 92 1015.8
20220523080712 72 103 0.0 0.9 0.00 0.38 0.00 92 1015.8
20220523080149 72 94 0.0 0.9 0.00 0.38 0.00 92 1015.7
20220523075636 72 92 0.0 0.9 0.00 0.38 0.00 91 1015.9
20220523075119 73 106 0.0 2.6 0.00 0.38 0.00 91 1016.0
20220523074609 73 93 0.0 2.6 0.00 0.38 0.00 91 1016.1
20220523074059 73 97 0.0 1.7 0.00 0.38 0.00 90 1016.1
20220523073552 73 115 0.9 1.7 0.00 0.38 0.00 90 1016.2
20220523073043 73 104 0.0 1.7 0.00 0.38 0.00 90 1016.2
20220523072535 73 90 0.0 2.6 0.00 0.38 0.00 90 1016.5
20220523072027 73 88 0.9 2.6 0.00 0.38 0.00 91 1016.7
20220523071522 73 92 1.7 2.6 0.00 0.38 0.00 91 1016.6
20220523071012 73 92 0.9 6.1 0.00 0.38 0.00 91 1016.4
20220523070503 73 152 1.7 6.1 0.00 0.38 0.00 91 1016.6
20220523065955 73 89 0.0 2.6 0.00 0.38 0.00 92 1016.6
20220523065450 73 91 0.0 2.6 0.00 0.38 0.00 91 1016.8
20220523064940 74 97 0.0 2.6 0.00 0.38 0.00 91 1016.6
20220523064434 74 85 0.0 0.9 0.00 0.38 0.00 91 1016.9
20220523063928 73 93 0.0 1.7 0.00 0.38 0.00 91 1017.1
20220523063415 73 90 0.9 1.7 0.00 0.38 0.00 91 1017.2
20220523062908 73 94 0.0 0.9 0.00 0.38 0.00 92 1016.8
20220523062349 73 98 0.0 0.9 0.00 0.38 0.00 91 1017.1
20220523061840 73 87 0.0 1.7 0.00 0.38 0.00 92 1016.9
20220523061334 73 98 0.0 1.7 0.00 0.38 0.00 92 1017.1
20220523060824 73 96 0.0 1.7 0.00 0.38 0.00 92 1017.4
20220523060317 73 99 0.0 1.7 0.00 0.38 0.00 92 1017.4
20220523055805 73 111 0.0 2.6 0.00 0.38 0.00 91 1017.3
20220523055254 74 95 0.0 2.6 0.00 0.38 0.00 91 1017.3
20220523054741 74 94 0.0 2.6 0.00 0.38 0.00 91 1017.4
20220523054237 74 87 0.0 2.6 0.00 0.38 0.00 91 1017.3
20220523053726 74 92 0.0 1.7 0.00 0.38 0.00 91 1017.5
20220523053218 74 99 1.7 2.6 0.00 0.38 0.00 91 1017.2
20220523052711 74 97 0.0 3.5 0.00 0.38 0.00 91 1017.2
20220523052201 74 39 0.0 3.5 0.00 0.38 0.00 90 1017.2
20220523051656 74 68 0.9 3.5 0.00 0.38 0.00 90 1017.3
20220523051148 75 66 0.9 3.5 0.00 0.38 0.00 90 1017.4
20220523050640 75 86 0.0 3.5 0.00 0.38 0.00 90 1017.2
20220523050129 75 80 0.9 3.5 0.00 0.39 0.00 90 1017.2
20220523045624 75 105 0.9 3.5 0.00 0.39 0.39 90 1017.3
20220523045106 75 86 0.0 2.6 0.00 0.39 0.39 90 1017.5
20220523044543 75 86 1.7 3.5 0.00 0.39 0.39 89 1017.6
20220523044035 76 75 1.7 5.2 0.00 0.39 0.39 89 1017.5
20220523043528 76 91 0.0 5.2 0.00 0.39 0.39 89 1017.7
20220523043022 76 70 0.9 5.2 0.00 0.39 0.39 88 1017.5
20220523042454 76 98 0.9 2.6 0.00 0.39 0.39 88 1017.4
20220523041947 76 88 0.0 3.5 0.00 0.39 0.39 88 1017.5
20220523041438 76 80 0.9 3.5 0.00 0.39 0.39 88 1017.3
20220523040931 76 91 0.9 2.6 0.00 0.39 0.39 86 1017.3
20220523040425 77 93 0.9 3.5 0.00 0.39 0.39 85 1017.4
20220523035909 77 82 0.9 3.5 0.00 0.39 0.39 84 1017.5
20220523035355 77 92 0.0 1.7 0.00 0.39 0.39 84 1017.4
20220523034850 77 93 0.0 2.6 0.00 0.39 0.39 84 1017.6
20220523034339 77 98 0.0 2.6 0.00 0.39 0.39 84 1017.3
20220523033831 77 97 0.0 5.2 0.00 0.39 0.39 83 1017.4
20220523033325 77 85 0.0 5.2 0.00 0.39 0.39 82 1017.4
20220523032815 77 91 0.0 1.7 0.00 0.39 0.39 82 1017.1
20220523032312 77 101 0.9 0.9 0.00 0.39 0.39 82 1017.0
20220523031759 77 94 0.0 0.9 0.00 0.39 0.39 82 1017.1
20220523031254 77 91 0.0 0.9 0.00 0.39 0.39 82 1017.0
20220523030744 77 91 0.0 0.9 0.00 0.39 0.39 82 1016.8
20220523030240 77 94 0.0 0.9 0.00 0.39 0.39 81 1016.8